#timestamp,LO_Frequency,Hit,StdDev 
1507971615.5,286047000.1,N
1507971635.3,286047000.0,N
1507971655.2,286047000.2,N
1507971675.0,286046998.4,N
1507971675.9,286046998.4,N
1507971695.8,286047000.3,N
1507971715.6,286046998.7,N
1507971735.4,286046998.5,N
1507971755.3,286046999.4,N
1507971775.1,286046998.7,N
1507971795.8,286046998.4,N
1507971815.7,286046998.5,N
1507971835.5,286046999.8,N
1507971855.4,286047002.4,N
1507971875.2,286047002.8,N
1507971895.0,286047002.6,N
1507971895.9,286047002.6,N
1507971915.8,286047002.5,N
1507971935.6,286047002.0,N
1507971955.4,286047001.5,N
1507971975.3,286047002.8,N
1507971995.3,286046999.8,N
1507972015.2,286047001.9,N
1507972035.0,286047002.7,N
1507972035.9,286047002.7,N
1507972055.7,286046999.7,N
1507972075.6,286047002.6,N
1507972095.4,286047001.8,N
1507972115.3,286047004.0,N
1507972135.1,286047004.2,N
1507972136.0,286047004.2,N
1507972155.8,286047004.3,N
1507972175.7,286046999.7,N
1507972195.5,286047002.6,N
1507972215.3,286047002.8,N
1507972235.2,286047002.2,N
1507972255.0,286047001.4,N
1507972255.9,286047001.4,N
1507972275.8,286047004.4,N
1507972295.6,286047004.4,N
1507972315.4,286047003.1,N
1507972335.3,286047002.5,N
1507972355.1,286046999.9,N
1507972375.9,286047000.8,N
1507972395.7,286046998.2,N
1507972415.5,286047001.1,N
1507972435.4,286047000.7,N
1507972455.2,286046998.7,N
1507972475.0,286047000.0,N
1507972475.9,286047000.0,N
1507972495.8,286047002.8,N
1507972515.6,286047002.5,N
1507972535.5,286047002.2,N
1507972555.3,286047000.2,N
1507972575.1,286047000.3,N
1507972595.9,286047002.5,N
1507972615.7,286046999.7,N
1507972635.5,286047000.2,N
1507972655.4,286046999.7,N
1507972675.2,286047000.1,N
1507972695.0,286047002.7,N
1507972696.0,286047002.7,N
1507972715.8,286047000.3,N
1507972735.6,286047000.4,N
1507972755.5,286047002.0,N
1507972775.3,286047001.4,N
1507972795.1,286047003.2,N
1507972815.9,286047003.1,N
1507972835.7,286047004.1,N
1507972855.6,286047002.2,N
1507972875.4,286047004.2,N
1507972895.2,286047004.2,N
1507972915.1,286047001.3,N
1507972916.0,286047001.3,N
1507972935.8,286047004.1,N
1507972955.7,286047004.3,N
1507972975.5,286047001.3,N
1507972995.3,286047003.9,N
1507973015.2,286047002.0,N
1507973035.0,286047002.8,N
1507973035.9,286047002.8,N
1507973055.7,286047004.0,N
1507973075.6,286047001.5,N
1507973095.4,286047000.2,N
1507973115.3,286047001.5,N
1507973135.1,286047002.5,N
1507973136.0,286047002.5,N
1507973155.8,286047000.0,N
1507973175.7,286047002.5,N
1507973195.5,286047000.5,N
1507973215.3,286047000.3,N
1507973235.2,286047000.4,N
1507973255.0,286047000.2,N
1507973255.9,286047000.2,N
1507973275.8,286047002.7,N
1507973295.6,286047002.0,N
1507973315.4,286047001.8,N
1507973335.3,286047003.8,N
1507973355.1,286047005.9,Y
1507973375.9,286047000.2,P
1507973395.7,286047002.3,N
1507973415.5,286047001.3,N
1507973435.4,286047001.4,N
1507973455.2,286047002.0,N
1507973475.1,286047002.2,Y
1507973476.0,286047002.2,P
1507973495.8,286047001.2,P
1507973515.6,286047000.6,N
1507973535.5,286046998.5,N
1507973555.3,286046999.9,N
1507973575.1,286046999.8,N
1507973595.9,286047000.1,N
1507973615.7,286046999.9,N
1507973635.6,286047002.8,N
1507973655.4,286047002.8,N
1507973675.2,286047002.3,N
1507973695.1,286046999.8,N
1507973696.0,286046999.8,N
1507973715.8,286047001.8,N
1507973735.6,286047001.6,N
1507973755.5,286047002.7,N
1507973775.3,286047002.7,N
1507973795.2,286046999.7,N
1507973815.9,286047002.4,N
1507973835.7,286047002.8,N
1507973855.6,286047002.6,N
1507973875.4,286047000.1,N
1507973895.2,286047000.4,N
1507973915.1,286047000.2,N
1507973916.0,286047000.2,N
1507973935.8,286047002.8,N
1507973955.7,286047002.3,N
1507973975.5,286046999.9,N
1507973995.3,286047000.4,N
1507974015.2,286046998.5,N
1507974035.0,286046997.0,N
1507974035.9,286046997.0,N
1507974055.8,286046996.7,N
1507974075.6,286046997.1,N
1507974095.4,286046998.5,N
1507974115.3,286046998.6,N
1507974135.1,286047001.0,N
1507974155.9,286047000.8,N
1507974175.7,286046998.2,N
1507974195.5,286046996.5,N
1507974215.4,286046999.1,N
1507974235.2,286046999.1,N
1507974255.0,286046998.4,N
1507974255.9,286046998.4,N
1507974275.8,286046998.2,N
1507974295.6,286046998.7,N
1507974315.5,286046998.1,N
1507974335.3,286047001.2,N
1507974355.1,286046998.6,N
1507974375.9,286046999.2,N
1507974395.7,286046999.6,N
1507974415.6,286046999.2,N
1507974435.4,286046999.5,N
1507974455.2,286046999.6,N
1507974475.1,286046999.3,N
1507974476.0,286046999.3,N
1507974495.8,286046996.7,N
1507974515.7,286047001.2,N
1507974535.5,286047000.8,N
1507974555.3,286046998.9,N
1507974575.2,286046998.5,N
1507974595.0,286047000.0,N
1507974595.9,286047000.0,N
1507974615.7,286047000.7,N
1507974635.6,286047000.6,N
1507974655.4,286046998.1,N
1507974675.3,286047001.2,N
1507974695.1,286047000.2,N
1507974715.8,286046998.2,N
1507974735.7,286046998.5,N
1507974755.5,286047001.0,N
1507974775.4,286046998.1,N
1507974795.2,286047000.8,N
1507974815.0,286047000.2,N
1507974815.9,286047000.2,N
1507974835.8,286047000.3,N
1507974855.6,286047000.8,N
1507974875.4,286047001.0,N
1507974895.3,286046999.7,N
1507974915.1,286047000.2,N
1507974935.9,286047001.5,N
1507974955.7,286047000.2,N
1507974975.5,286047002.8,N
1507974995.4,286047002.4,N
1507975015.2,286047002.2,N
1507975035.0,286047002.4,N
1507975035.9,286047002.4,N
1507975055.8,286047001.5,N
1507975075.6,286047001.9,N
1507975095.5,286046999.7,N
1507975115.3,286047000.1,N
1507975135.1,286047000.9,N
1507975155.9,286047000.8,N
1507975175.7,286046999.7,N
1507975195.6,286047002.8,N
